Home   Weather   Asheville   Past weeks

Flag for USA Past Weather in Asheville, North Carolina, USA — Yesterday and Last 2 Weeks

Now
64 °F

Mostly cloudy.


Feels Like: 64 °F
Forecast: 56 / 81 °F
Wind: 5 mph from Southeast

Location: Asheville Regional Airport

Current Time: Sep 28, 2016 at 6:17:27 AM

Latest Report: Sep 28, 2016 at 4:54 AM


Visibility: 10 mi

Pressure: 29.89 "Hg (27.71 "Hg at 647m altitude)

Humidity: 90%

Dew Point: 61 °F

Location of AshevilleLocation

Past Weather in Asheville — Graph

°F

Asheville Temperature Yesterday

Maximum temperature yesterday: 80 °F (at 2:54 PM)
Minimum temperature yesterday: 64 °F (at 12:54 AM)
Average temperature yesterday: 69 °F

High & Low Weather Summary for the Past Weeks

 TemperatureHumidityPressure
High89 °F (Sep 24, 3:54 PM)97% (Sep 18, 7:03 AM)30.27 "Hg (Sep 18, 7:03 AM)
Low58 °F (Sep 24, 7:54 AM)23% (Sep 24, 3:54 PM)29.84 "Hg (Sep 27, 3:54 PM)
Average71 °F72%30.08 "Hg
* Reported Sep 13 4:54 AM — Sep 28 4:54 AM, Asheville, Weather by CustomWeather, © 2016

Note: Actual official high and low records may vary slightly from our data, if they occured in-between our weather recording intervals... More about our weather records

Advertising

Asheville Weather History for the Previous 24 Hours

Scroll right to see more
 ConditionsComfort  
Time TempWeatherWind HumidityBarometerVisibility
4:54 AM
Wed, Sep 28
64 °FMostly cloudy.5 mph90%29.89 "Hg10 mi
4:04 AM63 °FMostly cloudy.3 mph93%29.97 "Hg10 mi
3:54 AM63 °FFog.No wind93%29.90 "Hg6 mi
2:54 AM63 °FFog.3 mph97%29.90 "Hg0 mi
1:54 AM62 °FFog.No wind96%29.90 "Hg0 mi
12:54 AM63 °FClear.No wind93%29.91 "Hg10 mi
11:54 PM
Tue, Sep 27
65 °FPassing clouds.No wind91%29.91 "Hg9 mi
10:54 PM66 °FPassing clouds.No wind87%29.91 "Hg10 mi
9:54 PM67 °FClear.No wind87%29.91 "Hg10 mi
8:54 PM68 °FClear.6 mph84%29.89 "Hg10 mi
7:54 PM71 °FPassing clouds.7 mph73%29.88 "Hg10 mi
6:54 PM73 °FPassing clouds.3 mph74%29.86 "Hg10 mi
5:54 PM77 °FThunderstorms. Broken clouds.6 mph62%29.85 "Hg10 mi
4:54 PM78 °FThundershowers. Broken clouds.7 mph56%29.84 "Hg10 mi
3:54 PM80 °FBroken clouds.8 mph52%29.84 "Hg10 mi
2:54 PM80 °FPassing clouds.3 mph52%29.86 "Hg10 mi
1:54 PM79 °FPassing clouds.3 mph54%29.90 "Hg10 mi
12:54 PM77 °FPartly sunny.No wind60%29.93 "Hg10 mi
11:54 AM74 °FPassing clouds.No wind67%29.96 "Hg10 mi
10:57 AM70 °FScattered clouds.3 mph76%30.05 "Hg2 mi
9:54 AM66 °FLow clouds.6 mph87%29.99 "Hg2 mi
8:54 AM65 °FMostly cloudy.5 mph91%29.98 "Hg2 mi
8:02 AM64 °FLow clouds.No wind90%30.04 "Hg9 mi
7:54 AM64 °FLow clouds.No wind94%29.98 "Hg9 mi
7:01 AM64 °FLight rain. Mostly cloudy.No wind94%30.03 "Hg7 mi
Weather by CustomWeather, © 2016

See weather overviewHow to use our weather pages